Time,TemperatureF,DewpointF,PressureIn,WindDirection,WindDirectionDegrees,WindSpeedMPH,WindSpeedGustMPH,Humidity,HourlyPrecipIn,Conditions,Clouds,dailyrainin,SoftwareType,DateUTC
2013-05-13 00:03:00,53.3,37.6,30.08,SE,139,0.0,0.0,55,0.00,,,0.00,VWS V14.00,2013-05-13 05:03:00,
2013-05-13 00:08:00,53.0,37.7,30.08,SSE,153,0.0,0.0,56,0.00,,,0.00,VWS V14.00,2013-05-13 05:08:00,
2013-05-13 00:13:00,52.8,37.5,30.08,SSE,150,0.0,0.0,56,0.00,,,0.00,VWS V14.00,2013-05-13 05:13:00,
2013-05-13 00:18:00,52.7,37.5,30.08,SE,144,0.0,0.0,56,0.00,,,0.00,VWS V14.00,2013-05-13 05:18:00,
2013-05-13 00:23:00,52.5,37.7,30.08,SSE,163,0.0,0.0,57,0.00,,,0.00,VWS V14.00,2013-05-13 05:23:00,
2013-05-13 00:28:00,52.4,37.6,30.08,SSE,163,0.0,0.0,57,0.00,,,0.00,VWS V14.00,2013-05-13 05:28:00,
2013-05-13 00:33:00,52.3,37.5,30.08,SSE,163,0.0,0.0,57,0.00,,,0.00,VWS V14.00,2013-05-13 05:33:00,
2013-05-13 00:37:00,52.2,37.9,30.08,SSE,163,0.0,0.0,58,0.00,,,0.00,VWS V14.00,2013-05-13 05:37:00,
2013-05-13 00:42:00,52.1,37.8,30.08,SSE,160,0.0,0.0,58,0.00,,,0.00,VWS V14.00,2013-05-13 05:42:00,
2013-05-13 00:47:00,51.9,38.0,30.08,SSE,161,0.0,0.0,59,0.00,,,0.00,VWS V14.00,2013-05-13 05:47:00,
2013-05-13 00:52:00,51.8,37.9,30.08,South,173,0.0,0.0,59,0.00,,,0.00,VWS V14.00,2013-05-13 05:52:00,
2013-05-13 00:57:00,51.8,38.4,30.08,SSE,166,0.0,0.0,60,0.00,,,0.00,VWS V14.00,2013-05-13 05:57:00,
2013-05-13 01:02:00,51.7,38.3,30.08,SSE,163,0.0,0.0,60,0.00,,,0.00,VWS V14.00,2013-05-13 06:02:00,
2013-05-13 01:07:00,51.5,38.1,30.08,SSE,160,0.0,0.0,60,0.00,,,0.00,VWS V14.00,2013-05-13 06:07:00,
2013-05-13 01:12:00,51.4,38.4,30.08,SSE,161,0.0,0.0,61,0.00,,,0.00,VWS V14.00,2013-05-13 06:12:00,
2013-05-13 01:17:00,51.2,38.2,30.08,SSE,157,0.0,0.0,61,0.00,,,0.00,VWS V14.00,2013-05-13 06:17:00,
2013-05-13 01:22:00,51.1,38.5,30.08,SSE,157,0.0,0.0,62,0.00,,,0.00,VWS V14.00,2013-05-13 06:22:00,
2013-05-13 01:27:00,50.9,38.4,30.07,SSE,156,0.0,0.0,62,0.00,,,0.00,VWS V14.00,2013-05-13 06:27:00,
2013-05-13 01:32:00,50.8,38.7,30.07,SSE,159,0.0,0.0,63,0.00,,,0.00,VWS V14.00,2013-05-13 06:32:00,
2013-05-13 01:37:00,50.7,39.0,30.07,SSE,158,0.0,0.0,64,0.00,,,0.00,VWS V14.00,2013-05-13 06:37:00,
2013-05-13 01:42:00,50.6,38.9,30.07,South,170,0.0,0.0,64,0.00,,,0.00,VWS V14.00,2013-05-13 06:42:00,
2013-05-13 01:47:00,50.6,39.3,30.07,SSE,163,0.0,0.0,65,0.00,,,0.00,VWS V14.00,2013-05-13 06:47:00,
2013-05-13 01:52:00,50.6,39.7,30.08,SSE,160,0.0,0.0,66,0.00,,,0.00,VWS V14.00,2013-05-13 06:52:00,
2013-05-13 01:57:00,50.6,39.7,30.07,SSE,161,0.0,0.0,66,0.00,,,0.00,VWS V14.00,2013-05-13 06:57:00,
2013-05-13 02:02:00,50.6,39.7,30.07,South,182,0.0,0.0,66,0.00,,,0.00,VWS V14.00,2013-05-13 07:02:00,
2013-05-13 02:07:00,50.6,39.7,30.07,SSE,161,0.0,0.0,66,0.00,,,0.00,VWS V14.00,2013-05-13 07:07:00,
2013-05-13 02:12:00,50.7,39.8,30.07,SSE,155,0.0,0.0,66,0.00,,,0.00,VWS V14.00,2013-05-13 07:12:00,
2013-05-13 02:17:00,50.7,40.2,30.07,SSE,159,0.0,0.0,67,0.00,,,0.00,VWS V14.00,2013-05-13 07:17:00,
2013-05-13 02:22:00,50.8,40.2,30.07,SSE,156,0.0,0.0,67,0.00,,,0.00,VWS V14.00,2013-05-13 07:22:00,
2013-05-13 02:27:00,50.8,40.2,30.07,SSE,152,0.0,0.0,67,0.00,,,0.00,VWS V14.00,2013-05-13 07:27:00,
2013-05-13 02:32:00,50.8,40.2,30.07,South,175,0.0,0.0,67,0.00,,,0.00,VWS V14.00,2013-05-13 07:32:00,
2013-05-13 02:37:00,50.8,40.6,30.07,SSE,159,0.0,0.0,68,0.00,,,0.00,VWS V14.00,2013-05-13 07:37:00,
2013-05-13 02:42:00,50.7,40.5,30.06,SSE,159,0.0,0.0,68,0.00,,,0.00,VWS V14.00,2013-05-13 07:42:00,
2013-05-13 02:47:00,50.6,40.4,30.06,South,187,0.0,0.0,68,0.00,,,0.00,VWS V14.00,2013-05-13 07:47:00,
2013-05-13 02:52:00,50.5,40.7,30.06,SSE,167,0.0,0.0,69,0.00,,,0.00,VWS V14.00,2013-05-13 07:52:00,
2013-05-13 02:57:00,50.5,40.7,30.07,SSE,158,0.0,0.0,69,0.00,,,0.00,VWS V14.00,2013-05-13 07:57:00,
2013-05-13 03:02:00,50.4,40.6,30.06,South,177,0.0,0.0,69,0.00,,,0.00,VWS V14.00,2013-05-13 08:02:00,
2013-05-13 03:07:00,50.3,40.9,30.07,South,176,0.0,0.0,70,0.00,,,0.00,VWS V14.00,2013-05-13 08:07:00,
2013-05-13 03:12:00,50.3,40.9,30.07,SE,139,0.0,0.0,70,0.00,,,0.00,VWS V14.00,2013-05-13 08:12:00,
2013-05-13 03:17:00,50.2,40.8,30.06,SE,141,0.0,0.0,70,0.00,,,0.00,VWS V14.00,2013-05-13 08:17:00,
2013-05-13 03:22:00,50.1,41.1,30.06,SE,142,0.0,0.0,71,0.00,,,0.00,VWS V14.00,2013-05-13 08:22:00,
2013-05-13 03:27:00,50.2,41.2,30.06,SE,145,0.0,0.0,71,0.00,,,0.00,VWS V14.00,2013-05-13 08:27:00,
2013-05-13 03:32:00,50.2,41.2,30.06,SSE,161,0.0,0.0,71,0.00,,,0.00,VWS V14.00,2013-05-13 08:32:00,
2013-05-13 03:37:00,50.3,41.3,30.06,South,180,0.0,0.0,71,0.00,,,0.00,VWS V14.00,2013-05-13 08:37:00,
2013-05-13 03:42:00,50.3,41.3,30.06,SSE,149,0.0,0.0,71,0.00,,,0.00,VWS V14.00,2013-05-13 08:42:00,
2013-05-13 03:47:00,50.4,41.4,30.05,SSE,149,0.0,0.0,71,0.00,,,0.00,VWS V14.00,2013-05-13 08:47:00,
2013-05-13 03:52:00,50.4,41.4,30.05,SSE,148,0.0,0.0,71,0.00,,,0.00,VWS V14.00,2013-05-13 08:52:00,
2013-05-13 03:57:00,50.4,41.4,30.05,SSE,165,0.0,0.0,71,0.00,,,0.00,VWS V14.00,2013-05-13 08:57:00,
2013-05-13 04:02:00,50.5,41.5,30.05,SSE,160,0.0,0.0,71,0.00,,,0.00,VWS V14.00,2013-05-13 09:02:00,
2013-05-13 04:07:00,50.5,41.5,30.05,SE,145,0.0,0.0,71,0.00,,,0.00,VWS V14.00,2013-05-13 09:07:00,
2013-05-13 04:12:00,50.6,41.2,30.05,South,191,0.0,0.0,70,0.00,,,0.00,VWS V14.00,2013-05-13 09:12:00,
2013-05-13 04:17:00,50.6,41.2,30.05,SSW,209,0.0,0.0,70,0.00,,,0.00,VWS V14.00,2013-05-13 09:17:00,
2013-05-13 04:22:00,50.7,41.3,30.05,South,171,0.0,0.0,70,0.00,,,0.00,VWS V14.00,2013-05-13 09:22:00,
2013-05-13 04:27:00,50.8,41.4,30.05,South,173,0.0,0.0,70,0.00,,,0.00,VWS V14.00,2013-05-13 09:27:00,
2013-05-13 04:32:00,50.8,41.0,30.04,South,189,0.0,0.0,69,0.00,,,0.00,VWS V14.00,2013-05-13 09:32:00,
2013-05-13 04:37:00,50.7,40.9,30.04,SSE,164,0.0,0.0,69,0.00,,,0.00,VWS V14.00,2013-05-13 09:37:00,
2013-05-13 04:42:00,50.6,41.2,30.04,South,169,0.0,0.0,70,0.00,,,0.00,VWS V14.00,2013-05-13 09:42:00,
2013-05-13 04:47:00,50.5,41.1,30.04,SSE,148,0.0,0.0,70,0.00,,,0.00,VWS V14.00,2013-05-13 09:47:00,
2013-05-13 04:52:00,50.4,41.0,30.04,SSE,150,0.0,0.0,70,0.00,,,0.00,VWS V14.00,2013-05-13 09:52:00,
2013-05-13 04:57:00,50.3,40.9,30.04,SSE,161,0.0,0.0,70,0.00,,,0.00,VWS V14.00,2013-05-13 09:57:00,
2013-05-13 05:02:00,50.1,40.7,30.03,SSE,157,0.0,0.0,70,0.00,,,0.00,VWS V14.00,2013-05-13 10:02:00,
2013-05-13 05:07:00,49.9,40.9,30.03,SSE,156,0.0,0.0,71,0.00,,,0.00,VWS V14.00,2013-05-13 10:07:00,
2013-05-13 05:12:00,49.8,40.8,30.03,South,188,0.0,0.0,71,0.00,,,0.00,VWS V14.00,2013-05-13 10:12:00,
2013-05-13 05:17:00,49.7,40.7,30.03,SSE,155,0.0,0.0,71,0.00,,,0.00,VWS V14.00,2013-05-13 10:17:00,
2013-05-13 05:22:00,49.7,40.7,30.03,SE,138,0.0,0.0,71,0.00,,,0.00,VWS V14.00,2013-05-13 10:22:00,
2013-05-13 05:27:00,49.6,40.6,30.03,SSE,150,0.0,0.0,71,0.00,,,0.00,VWS V14.00,2013-05-13 10:27:00,
2013-05-13 05:32:00,49.6,40.6,30.02,South,173,0.0,0.0,71,0.00,,,0.00,VWS V14.00,2013-05-13 10:32:00,
2013-05-13 05:37:00,49.5,40.9,30.03,South,181,0.0,0.0,72,0.00,,,0.00,VWS V14.00,2013-05-13 10:37:00,
2013-05-13 05:42:00,49.4,40.8,30.03,South,174,0.0,0.0,72,0.00,,,0.00,VWS V14.00,2013-05-13 10:42:00,
2013-05-13 05:47:00,49.4,40.8,30.03,SSE,156,0.0,0.0,72,0.00,,,0.00,VWS V14.00,2013-05-13 10:47:00,
2013-05-13 05:52:00,49.4,40.8,30.03,South,175,0.0,0.0,72,0.00,,,0.00,VWS V14.00,2013-05-13 10:52:00,
2013-05-13 05:57:00,49.4,40.8,30.03,South,173,0.0,0.0,72,0.00,,,0.00,VWS V14.00,2013-05-13 10:57:00,
2013-05-13 06:02:00,49.4,40.8,30.03,South,172,0.0,1.0,72,0.00,,,0.00,VWS V14.00,2013-05-13 11:02:00,
2013-05-13 06:07:00,49.5,40.9,30.03,South,176,0.0,0.0,72,0.00,,,0.00,VWS V14.00,2013-05-13 11:07:00,
2013-05-13 06:12:00,49.5,40.9,30.03,SSE,153,0.0,0.0,72,0.00,,,0.00,VWS V14.00,2013-05-13 11:12:00,
2013-05-13 06:17:00,49.5,40.9,30.03,SSE,155,0.0,0.0,72,0.00,,,0.00,VWS V14.00,2013-05-13 11:17:00,
2013-05-13 06:22:00,49.4,41.1,30.03,South,169,0.0,0.0,73,0.00,,,0.00,VWS V14.00,2013-05-13 11:22:00,
2013-05-13 06:27:00,49.4,41.1,30.03,SSE,153,0.0,0.0,73,0.00,,,0.00,VWS V14.00,2013-05-13 11:27:00,
2013-05-13 06:32:00,49.4,41.1,30.04,SSE,167,0.0,0.0,73,0.00,,,0.00,VWS V14.00,2013-05-13 11:32:00,
2013-05-13 06:36:00,49.4,41.1,30.04,SSE,155,0.0,0.0,73,0.00,,,0.00,VWS V14.00,2013-05-13 11:36:00,
2013-05-13 06:41:00,49.5,41.2,30.04,SSE,160,0.0,0.0,73,0.00,,,0.00,VWS V14.00,2013-05-13 11:41:00,
2013-05-13 06:46:00,49.6,41.3,30.04,SSE,163,0.0,0.0,73,0.00,,,0.00,VWS V14.00,2013-05-13 11:46:00,
2013-05-13 06:51:00,49.7,41.4,30.04,SE,144,0.0,0.0,73,0.00,,,0.00,VWS V14.00,2013-05-13 11:51:00,
2013-05-13 06:56:00,50.0,41.7,30.04,SSE,152,0.0,1.0,73,0.00,,,0.00,VWS V14.00,2013-05-13 11:56:00,
2013-05-13 07:01:00,50.3,41.6,30.04,South,176,0.0,1.0,72,0.00,,,0.00,VWS V14.00,2013-05-13 12:01:00,
2013-05-13 07:06:00,50.8,41.8,30.04,SSE,159,1.0,5.0,71,0.00,,,0.00,VWS V14.00,2013-05-13 12:06:00,
2013-05-13 07:11:00,51.2,41.8,30.04,SSE,159,0.0,9.0,70,0.00,,,0.00,VWS V14.00,2013-05-13 12:11:00,
2013-05-13 07:16:00,51.6,42.2,30.04,SSE,161,0.0,9.0,70,0.00,,,0.00,VWS V14.00,2013-05-13 12:16:00,
2013-05-13 07:21:00,52.0,42.2,30.04,SSE,156,0.0,10.0,69,0.00,,,0.00,VWS V14.00,2013-05-13 12:21:00,
2013-05-13 07:26:00,52.4,42.2,30.04,SSE,161,0.0,10.0,68,0.00,,,0.00,VWS V14.00,2013-05-13 12:26:00,
2013-05-13 07:31:00,52.8,42.5,30.04,SSW,194,0.0,10.0,68,0.00,,,0.00,VWS V14.00,2013-05-13 12:31:00,
2013-05-13 07:36:00,53.4,42.3,30.04,SSW,203,0.0,6.0,66,0.00,,,0.00,VWS V14.00,2013-05-13 12:36:00,
2013-05-13 07:41:00,53.9,42.8,30.04,SE,146,0.0,6.0,66,0.00,,,0.00,VWS V14.00,2013-05-13 12:41:00,
2013-05-13 07:46:00,54.5,43.0,30.04,SSE,156,0.0,6.0,65,0.00,,,0.00,VWS V14.00,2013-05-13 12:46:00,
2013-05-13 07:51:00,55.0,43.1,30.04,South,169,1.0,6.0,64,0.00,,,0.00,VWS V14.00,2013-05-13 12:51:00,
2013-05-13 07:56:00,55.4,42.6,30.04,South,175,6.0,11.0,62,0.00,,,0.00,VWS V14.00,2013-05-13 12:56:00,
2013-05-13 08:01:00,55.7,42.9,30.04,South,173,1.0,12.0,62,0.00,,,0.00,VWS V14.00,2013-05-13 13:01:00,
2013-05-13 08:06:00,56.1,43.3,30.04,SSE,157,1.0,1.0,62,0.00,,,0.00,VWS V14.00,2013-05-13 13:06:00,
2013-05-13 08:11:00,56.5,43.2,30.04,SSE,156,2.0,4.0,61,0.00,,,0.00,VWS V14.00,2013-05-13 13:11:00,
2013-05-13 08:16:00,56.7,43.0,30.04,SSE,160,1.0,9.0,60,0.00,,,0.00,VWS V14.00,2013-05-13 13:16:00,
2013-05-13 08:21:00,56.9,42.7,30.04,SSE,156,1.0,9.0,59,0.00,,,0.00,VWS V14.00,2013-05-13 13:21:00,
2013-05-13 08:26:00,57.3,43.1,30.04,South,180,0.0,11.0,59,0.00,,,0.00,VWS V14.00,2013-05-13 13:26:00,
2013-05-13 08:31:00,57.7,43.5,30.04,South,178,1.0,11.0,59,0.00,,,0.00,VWS V14.00,2013-05-13 13:31:00,
2013-05-13 08:36:00,58.1,43.4,30.04,SSE,167,3.0,5.0,58,0.00,,,0.00,VWS V14.00,2013-05-13 13:36:00,
2013-05-13 08:41:00,58.4,43.7,30.04,South,184,2.0,5.0,58,0.00,,,0.00,VWS V14.00,2013-05-13 13:41:00,
2013-05-13 08:46:00,58.7,44.0,30.04,SSE,165,2.0,5.0,58,0.00,,,0.00,VWS V14.00,2013-05-13 13:46:00,
2013-05-13 08:51:00,59.0,43.8,30.04,SE,136,6.0,8.0,57,0.00,,,0.00,VWS V14.00,2013-05-13 13:51:00,
2013-05-13 08:56:00,59.0,43.3,30.04,SSW,192,4.0,9.0,56,0.00,,,0.00,VWS V14.00,2013-05-13 13:56:00,
2013-05-13 09:01:00,59.0,43.3,30.03,SSW,200,1.0,9.0,56,0.00,,,0.00,VWS V14.00,2013-05-13 14:01:00,
2013-05-13 09:06:00,59.5,43.8,30.03,South,186,6.0,7.0,56,0.00,,,0.00,VWS V14.00,2013-05-13 14:06:00,
2013-05-13 09:11:00,59.6,43.9,30.03,SSE,165,2.0,11.0,56,0.00,,,0.00,VWS V14.00,2013-05-13 14:11:00,
2013-05-13 09:16:00,60.0,44.3,30.03,SSE,149,1.0,11.0,56,0.00,,,0.00,VWS V14.00,2013-05-13 14:16:00,
2013-05-13 09:21:00,60.4,44.2,30.03,SSW,202,3.0,11.0,55,0.00,,,0.00,VWS V14.00,2013-05-13 14:21:00,
2013-05-13 09:26:00,60.7,44.5,30.02,South,169,4.0,11.0,55,0.00,,,0.00,VWS V14.00,2013-05-13 14:26:00,
2013-05-13 09:31:00,61.1,44.3,30.02,South,180,3.0,11.0,54,0.00,,,0.00,VWS V14.00,2013-05-13 14:31:00,
2013-05-13 09:36:00,61.5,44.7,30.02,SE,146,2.0,7.0,54,0.00,,,0.00,VWS V14.00,2013-05-13 14:36:00,
2013-05-13 09:41:00,62.0,45.2,30.01,SE,134,1.0,9.0,54,0.00,,,0.00,VWS V14.00,2013-05-13 14:41:00,
2013-05-13 09:46:00,62.5,45.7,30.01,SE,135,1.0,9.0,54,0.00,,,0.00,VWS V14.00,2013-05-13 14:46:00,
2013-05-13 09:51:00,62.9,45.5,30.01,SE,133,2.0,12.0,53,0.00,,,0.00,VWS V14.00,2013-05-13 14:51:00,
2013-05-13 09:56:00,63.1,45.7,30.01,SE,141,3.0,12.0,53,0.00,,,0.00,VWS V14.00,2013-05-13 14:56:00,
2013-05-13 10:01:00,63.4,46.0,30.00,SSE,160,1.0,12.0,53,0.00,,,0.00,VWS V14.00,2013-05-13 15:01:00,
2013-05-13 10:06:00,63.8,46.4,30.00,SSE,165,3.0,4.0,53,0.00,,,0.00,VWS V14.00,2013-05-13 15:06:00,
2013-05-13 10:11:00,64.3,46.3,30.00,SSE,153,2.0,7.0,52,0.00,,,0.00,VWS V14.00,2013-05-13 15:11:00,
2013-05-13 10:16:00,64.6,46.6,30.00,SSE,149,3.0,11.0,52,0.00,,,0.00,VWS V14.00,2013-05-13 15:16:00,
2013-05-13 10:21:00,65.2,46.6,30.00,SSE,165,2.0,11.0,51,0.00,,,0.00,VWS V14.00,2013-05-13 15:21:00,
2013-05-13 10:26:00,65.8,46.7,30.00,SW,214,2.0,11.0,50,0.00,,,0.00,VWS V14.00,2013-05-13 15:26:00,
2013-05-13 10:31:00,66.3,47.1,30.00,SSW,209,4.0,11.0,50,0.00,,,0.00,VWS V14.00,2013-05-13 15:31:00,
2013-05-13 10:36:00,67.0,47.8,30.00,South,184,1.0,5.0,50,0.00,,,0.00,VWS V14.00,2013-05-13 15:36:00,
2013-05-13 10:41:00,67.6,47.8,30.00,South,182,1.0,10.0,49,0.00,,,0.00,VWS V14.00,2013-05-13 15:41:00,
2013-05-13 10:46:00,68.1,48.2,30.00,South,188,1.0,11.0,49,0.00,,,0.00,VWS V14.00,2013-05-13 15:46:00,
2013-05-13 10:51:00,68.6,48.2,30.00,SE,134,5.0,11.0,48,0.00,,,0.00,VWS V14.00,2013-05-13 15:51:00,
2013-05-13 10:56:00,69.1,49.2,29.99,South,187,1.0,11.0,49,0.00,,,0.00,VWS V14.00,2013-05-13 15:56:00,
2013-05-13 11:01:00,70.0,48.9,29.99,South,186,6.0,11.0,47,0.00,,,0.00,VWS V14.00,2013-05-13 16:01:00,
2013-05-13 11:06:00,70.3,48.6,29.99,SSE,156,5.0,9.0,46,0.00,,,0.00,VWS V14.00,2013-05-13 16:06:00,
2013-05-13 11:11:00,70.6,48.8,29.99,SE,130,2.0,11.0,46,0.00,,,0.00,VWS V14.00,2013-05-13 16:11:00,
2013-05-13 11:16:00,70.8,49.0,29.99,SE,124,3.0,11.0,46,0.00,,,0.00,VWS V14.00,2013-05-13 16:16:00,
2013-05-13 11:21:00,70.9,49.1,29.99,SE,133,3.0,11.0,46,0.00,,,0.00,VWS V14.00,2013-05-13 16:21:00,
2013-05-13 11:26:00,71.3,48.9,29.98,SE,129,7.0,14.0,45,0.00,,,0.00,VWS V14.00,2013-05-13 16:26:00,
2013-05-13 11:31:00,71.5,49.1,29.98,SE,128,2.0,14.0,45,0.00,,,0.00,VWS V14.00,2013-05-13 16:31:00,
2013-05-13 11:36:00,72.2,49.1,29.98,SE,140,5.0,7.0,44,0.00,,,0.00,VWS V14.00,2013-05-13 16:36:00,
2013-05-13 11:41:00,72.4,49.9,29.98,SSE,157,1.0,11.0,45,0.00,,,0.00,VWS V14.00,2013-05-13 16:41:00,
2013-05-13 11:46:00,73.0,49.8,29.98,SE,124,1.0,11.0,44,0.00,,,0.00,VWS V14.00,2013-05-13 16:46:00,
2013-05-13 11:51:00,73.8,49.9,29.98,SSE,150,4.0,13.0,43,0.00,,,0.00,VWS V14.00,2013-05-13 16:51:00,
2013-05-13 11:56:00,74.3,50.4,29.98,SE,132,7.0,13.0,43,0.00,,,0.00,VWS V14.00,2013-05-13 16:56:00,
2013-05-13 12:01:00,74.6,50.0,29.98,SSE,164,10.0,13.0,42,0.00,,,0.00,VWS V14.00,2013-05-13 17:01:00,
2013-05-13 12:06:00,74.8,49.5,29.98,SSE,148,5.0,6.0,41,0.00,,,0.00,VWS V14.00,2013-05-13 17:06:00,
2013-05-13 12:11:00,74.9,49.0,29.98,South,191,2.0,13.0,40,0.00,,,0.00,VWS V14.00,2013-05-13 17:11:00,
2013-05-13 12:16:00,75.5,49.5,29.97,SSE,158,11.0,13.0,40,0.00,,,0.00,VWS V14.00,2013-05-13 17:16:00,
2013-05-13 12:20:00,75.5,49.5,29.97,SSW,198,4.0,13.0,40,0.00,,,0.00,VWS V14.00,2013-05-13 17:20:00,
2013-05-13 12:25:00,75.8,49.1,29.97,South,172,5.0,14.0,39,0.00,,,0.00,VWS V14.00,2013-05-13 17:25:00,
2013-05-13 12:30:00,76.0,49.3,29.97,SSE,163,2.0,15.0,39,0.00,,,0.00,VWS V14.00,2013-05-13 17:30:00,
2013-05-13 12:35:00,76.6,49.1,29.96,SE,130,4.0,14.0,38,0.00,,,0.00,VWS V14.00,2013-05-13 17:35:00,
2013-05-13 12:40:00,76.7,49.2,29.96,SSE,155,11.0,14.0,38,0.00,,,0.00,VWS V14.00,2013-05-13 17:40:00,
2013-05-13 12:45:00,77.0,48.8,29.95,SSE,163,11.0,14.0,37,0.00,,,0.00,VWS V14.00,2013-05-13 17:45:00,
2013-05-13 12:50:00,77.6,49.3,29.95,South,175,1.0,14.0,37,0.00,,,0.00,VWS V14.00,2013-05-13 17:50:00,
2013-05-13 12:55:00,78.2,48.3,29.95,SSW,211,4.0,17.0,35,0.00,,,0.00,VWS V14.00,2013-05-13 17:55:00,
2013-05-13 13:00:00,78.7,49.5,29.95,SE,139,10.0,17.0,36,0.00,,,0.00,VWS V14.00,2013-05-13 18:00:00,
2013-05-13 13:05:00,78.6,47.9,29.95,South,180,2.0,12.0,34,0.00,,,0.00,VWS V14.00,2013-05-13 18:05:00,
2013-05-13 13:10:00,78.7,48.0,29.94,SSE,166,3.0,14.0,34,0.00,,,0.00,VWS V14.00,2013-05-13 18:10:00,
2013-05-13 13:15:00,79.1,48.3,29.94,SSW,206,4.0,15.0,34,0.00,,,0.00,VWS V14.00,2013-05-13 18:15:00,
2013-05-13 13:20:00,79.4,47.0,29.94,South,184,13.0,18.0,32,0.00,,,0.00,VWS V14.00,2013-05-13 18:20:00,
2013-05-13 13:25:00,79.5,47.9,29.94,South,179,3.0,19.0,33,0.00,,,0.00,VWS V14.00,2013-05-13 18:25:00,
2013-05-13 13:30:00,80.2,47.7,29.93,SSW,193,4.0,19.0,32,0.00,,,0.00,VWS V14.00,2013-05-13 18:30:00,
2013-05-13 13:35:00,80.5,48.0,29.93,SW,221,7.0,10.0,32,0.00,,,0.00,VWS V14.00,2013-05-13 18:35:00,
2013-05-13 13:40:00,80.5,48.8,29.93,SSE,159,10.0,15.0,33,0.00,,,0.00,VWS V14.00,2013-05-13 18:40:00,
2013-05-13 13:45:00,80.7,48.1,29.93,SSW,206,7.0,16.0,32,0.00,,,0.00,VWS V14.00,2013-05-13 18:45:00,
2013-05-13 13:50:00,81.0,45.8,29.93,SSE,152,12.0,16.0,29,0.00,,,0.00,VWS V14.00,2013-05-13 18:50:00,
2013-05-13 13:55:00,81.1,45.9,29.92,SSW,205,5.0,16.0,29,0.00,,,0.00,VWS V14.00,2013-05-13 18:55:00,
2013-05-13 14:00:00,81.4,46.1,29.92,SSE,167,4.0,20.0,29,0.00,,,0.00,VWS V14.00,2013-05-13 19:00:00,
2013-05-13 14:05:00,81.6,45.4,29.92,SE,140,5.0,9.0,28,0.00,,,0.00,VWS V14.00,2013-05-13 19:05:00,
2013-05-13 14:10:00,81.8,46.5,29.92,SW,233,8.0,15.0,29,0.00,,,0.00,VWS V14.00,2013-05-13 19:10:00,
2013-05-13 14:15:00,82.3,46.9,29.92,SSE,160,2.0,15.0,29,0.00,,,0.00,VWS V14.00,2013-05-13 19:15:00,
2013-05-13 14:20:00,82.7,47.2,29.92,SSE,153,1.0,16.0,29,0.00,,,0.00,VWS V14.00,2013-05-13 19:20:00,
2013-05-13 14:25:00,82.8,46.4,29.91,South,182,6.0,16.0,28,0.00,,,0.00,VWS V14.00,2013-05-13 19:25:00,
2013-05-13 14:30:00,82.7,46.3,29.91,SE,145,7.0,18.0,28,0.00,,,0.00,VWS V14.00,2013-05-13 19:30:00,
2013-05-13 14:35:00,83.0,45.6,29.91,SSW,211,9.0,14.0,27,0.00,,,0.00,VWS V14.00,2013-05-13 19:35:00,
2013-05-13 14:40:00,83.8,46.3,29.91,SW,223,6.0,16.0,27,0.00,,,0.00,VWS V14.00,2013-05-13 19:40:00,
2013-05-13 14:45:00,84.2,45.6,29.91,South,174,1.0,16.0,26,0.00,,,0.00,VWS V14.00,2013-05-13 19:45:00,
2013-05-13 14:50:00,84.5,45.9,29.91,SSW,194,10.0,16.0,26,0.00,,,0.00,VWS V14.00,2013-05-13 19:50:00,
2013-05-13 14:55:00,84.6,46.0,29.91,SSW,193,5.0,16.0,26,0.00,,,0.00,VWS V14.00,2013-05-13 19:55:00,
2013-05-13 15:00:00,84.7,47.1,29.90,SSE,168,4.0,22.0,27,0.00,,,0.00,VWS V14.00,2013-05-13 20:00:00,
2013-05-13 15:05:00,84.9,47.2,29.90,SSE,160,10.0,10.0,27,0.00,,,0.00,VWS V14.00,2013-05-13 20:05:00,
2013-05-13 15:10:00,85.2,48.5,29.90,South,188,9.0,14.0,28,0.00,,,0.00,VWS V14.00,2013-05-13 20:10:00,
2013-05-13 15:15:00,85.2,47.5,29.90,SSW,208,8.0,15.0,27,0.00,,,0.00,VWS V14.00,2013-05-13 20:15:00,
2013-05-13 15:20:00,85.2,47.5,29.89,South,190,2.0,15.0,27,0.00,,,0.00,VWS V14.00,2013-05-13 20:20:00,
2013-05-13 15:25:00,85.2,48.5,29.89,SSW,207,5.0,16.0,28,0.00,,,0.00,VWS V14.00,2013-05-13 20:25:00,
2013-05-13 15:30:00,85.5,48.7,29.89,SW,236,4.0,17.0,28,0.00,,,0.00,VWS V14.00,2013-05-13 20:30:00,
2013-05-13 15:35:00,85.6,48.8,29.89,SSE,163,11.0,12.0,28,0.00,,,0.00,VWS V14.00,2013-05-13 20:35:00,
2013-05-13 15:40:00,85.5,48.7,29.88,South,171,7.0,16.0,28,0.00,,,0.00,VWS V14.00,2013-05-13 20:40:00,
2013-05-13 15:45:00,85.5,48.7,29.88,SSE,166,8.0,17.0,28,0.00,,,0.00,VWS V14.00,2013-05-13 20:45:00,
2013-05-13 15:50:00,85.8,48.0,29.88,SSE,167,2.0,17.0,27,0.00,,,0.00,VWS V14.00,2013-05-13 20:50:00,
2013-05-13 15:55:00,86.1,48.2,29.88,SSE,164,1.0,19.0,27,0.00,,,0.00,VWS V14.00,2013-05-13 20:55:00,
2013-05-13 16:00:00,86.5,47.6,29.88,South,184,2.0,19.0,26,0.00,,,0.00,VWS V14.00,2013-05-13 21:00:00,
2013-05-13 16:05:00,86.4,47.5,29.88,SW,217,9.0,23.0,26,0.00,,,0.00,VWS V14.00,2013-05-13 21:05:00,
2013-05-13 16:10:00,86.4,47.5,29.87,South,169,10.0,14.0,26,0.00,,,0.00,VWS V14.00,2013-05-13 21:10:00,
2013-05-13 16:15:00,86.4,48.5,29.87,South,171,3.0,15.0,27,0.00,,,0.00,VWS V14.00,2013-05-13 21:15:00,
2013-05-13 16:20:00,86.5,48.6,29.87,SW,228,9.0,15.0,27,0.00,,,0.00,VWS V14.00,2013-05-13 21:20:00,
2013-05-13 16:25:00,86.6,49.7,29.87,SW,233,3.0,20.0,28,0.00,,,0.00,VWS V14.00,2013-05-13 21:25:00,
2013-05-13 16:30:00,86.6,49.7,29.87,SW,217,6.0,20.0,28,0.00,,,0.00,VWS V14.00,2013-05-13 21:30:00,
2013-05-13 16:35:00,86.7,49.7,29.86,SSW,204,5.0,20.0,28,0.00,,,0.00,VWS V14.00,2013-05-13 21:35:00,
2013-05-13 16:40:00,86.6,50.6,29.86,South,175,8.0,21.0,29,0.00,,,0.00,VWS V14.00,2013-05-13 21:40:00,
2013-05-13 16:45:00,86.7,51.6,29.85,South,171,3.0,21.0,30,0.00,,,0.00,VWS V14.00,2013-05-13 21:45:00,
2013-05-13 16:50:00,86.8,50.8,29.85,South,182,17.0,21.0,29,0.00,,,0.00,VWS V14.00,2013-05-13 21:50:00,
2013-05-13 16:55:00,86.5,51.4,29.85,SSW,206,13.0,21.0,30,0.00,,,0.00,VWS V14.00,2013-05-13 21:55:00,
2013-05-13 17:00:00,86.2,51.2,29.85,SW,232,5.0,22.0,30,0.00,,,0.00,VWS V14.00,2013-05-13 22:00:00,
2013-05-13 17:05:00,86.3,51.2,29.85,SSW,207,4.0,22.0,30,0.00,,,0.00,VWS V14.00,2013-05-13 22:05:00,
2013-05-13 17:10:00,86.4,51.3,29.85,SSW,213,6.0,18.0,30,0.00,,,0.00,VWS V14.00,2013-05-13 22:10:00,
2013-05-13 17:15:00,86.5,51.4,29.85,South,187,5.0,20.0,30,0.00,,,0.00,VWS V14.00,2013-05-13 22:15:00,
2013-05-13 17:20:00,86.4,52.2,29.85,SSW,210,5.0,20.0,31,0.00,,,0.00,VWS V14.00,2013-05-13 22:20:00,
2013-05-13 17:25:00,86.3,52.1,29.85,SW,225,4.0,20.0,31,0.00,,,0.00,VWS V14.00,2013-05-13 22:25:00,
2013-05-13 17:30:00,86.3,51.2,29.85,South,173,10.0,20.0,30,0.00,,,0.00,VWS V14.00,2013-05-13 22:30:00,
2013-05-13 17:35:00,86.4,52.2,29.84,SSW,200,0.0,20.0,31,0.00,,,0.00,VWS V14.00,2013-05-13 22:35:00,
2013-05-13 17:40:00,86.3,51.2,29.84,SW,215,14.0,14.0,30,0.00,,,0.00,VWS V14.00,2013-05-13 22:40:00,
2013-05-13 17:45:00,86.3,51.2,29.84,SW,227,16.0,16.0,30,0.00,,,0.00,VWS V14.00,2013-05-13 22:45:00,
2013-05-13 17:50:00,86.1,51.1,29.84,SW,224,5.0,18.0,30,0.00,,,0.00,VWS V14.00,2013-05-13 22:50:00,
2013-05-13 17:55:00,85.9,50.9,29.84,SSW,205,10.0,18.0,30,0.00,,,0.00,VWS V14.00,2013-05-13 22:55:00,
2013-05-13 18:00:00,85.8,50.8,29.83,SW,236,11.0,18.0,30,0.00,,,0.00,VWS V14.00,2013-05-13 23:00:00,
2013-05-13 18:05:00,85.7,51.6,29.83,SE,132,3.0,18.0,31,0.00,,,0.00,VWS V14.00,2013-05-13 23:05:00,
2013-05-13 18:09:00,85.5,51.4,29.83,SSE,161,3.0,25.0,31,0.00,,,0.00,VWS V14.00,2013-05-13 23:09:00,
2013-05-13 18:14:00,85.4,52.2,29.83,WSW,250,7.0,25.0,32,0.00,,,0.00,VWS V14.00,2013-05-13 23:14:00,
2013-05-13 18:19:00,85.2,52.0,29.83,WSW,241,2.0,25.0,32,0.00,,,0.00,VWS V14.00,2013-05-13 23:19:00,
2013-05-13 18:24:00,84.9,51.8,29.83,South,176,10.0,25.0,32,0.00,,,0.00,VWS V14.00,2013-05-13 23:24:00,
2013-05-13 18:29:00,84.8,52.5,29.83,South,182,5.0,25.0,33,0.00,,,0.00,VWS V14.00,2013-05-13 23:29:00,
2013-05-13 18:34:00,84.7,52.4,29.83,South,191,3.0,25.0,33,0.00,,,0.00,VWS V14.00,2013-05-13 23:34:00,
2013-05-13 18:39:00,84.5,53.1,29.83,SSW,195,7.0,12.0,34,0.00,,,0.00,VWS V14.00,2013-05-13 23:39:00,
2013-05-13 18:44:00,84.3,53.7,29.82,SSW,197,5.0,15.0,35,0.00,,,0.00,VWS V14.00,2013-05-13 23:44:00,
2013-05-13 18:49:00,83.9,53.3,29.82,SSE,163,0.0,15.0,35,0.00,,,0.00,VWS V14.00,2013-05-13 23:49:00,
2013-05-13 18:54:00,83.8,54.0,29.82,SSW,213,2.0,15.0,36,0.00,,,0.00,VWS V14.00,2013-05-13 23:54:00,
2013-05-13 18:59:00,83.6,53.8,29.82,SSE,157,12.0,15.0,36,0.00,,,0.00,VWS V14.00,2013-05-13 23:59:00,
2013-05-13 19:04:00,83.3,54.3,29.82,South,179,0.0,15.0,37,0.00,,,0.00,VWS V14.00,2013-05-14 00:04:00,
2013-05-13 19:09:00,83.2,54.2,29.82,South,169,0.0,7.0,37,0.00,,,0.00,VWS V14.00,2013-05-14 00:09:00,
2013-05-13 19:14:00,82.9,54.7,29.82,SSE,148,1.0,9.0,38,0.00,,,0.00,VWS V14.00,2013-05-14 00:14:00,
2013-05-13 19:19:00,82.6,54.5,29.82,South,171,3.0,9.0,38,0.00,,,0.00,VWS V14.00,2013-05-14 00:19:00,
2013-05-13 19:24:00,82.4,55.0,29.81,South,169,0.0,14.0,39,0.00,,,0.00,VWS V14.00,2013-05-14 00:24:00,
2013-05-13 19:29:00,82.1,55.4,29.81,SSW,203,2.0,14.0,40,0.00,,,0.00,VWS V14.00,2013-05-14 00:29:00,
2013-05-13 19:34:00,81.9,55.2,29.81,SSE,156,0.0,14.0,40,0.00,,,0.00,VWS V14.00,2013-05-14 00:34:00,
2013-05-13 19:39:00,81.7,55.7,29.81,SSW,208,1.0,9.0,41,0.00,,,0.00,VWS V14.00,2013-05-14 00:39:00,
2013-05-13 19:44:00,81.4,55.5,29.81,SSE,165,3.0,12.0,41,0.00,,,0.00,VWS V14.00,2013-05-14 00:44:00,
2013-05-13 19:49:00,81.1,55.2,29.81,SSE,163,4.0,12.0,41,0.00,,,0.00,VWS V14.00,2013-05-14 00:49:00,
2013-05-13 19:54:00,80.8,54.9,29.81,South,190,7.0,12.0,41,0.00,,,0.00,VWS V14.00,2013-05-14 00:54:00,
2013-05-13 19:59:00,80.5,55.3,29.81,South,182,3.0,12.0,42,0.00,,,0.00,VWS V14.00,2013-05-14 00:59:00,
2013-05-13 20:04:00,80.1,55.6,29.81,South,175,1.0,12.0,43,0.00,,,0.00,VWS V14.00,2013-05-14 01:04:00,
2013-05-13 20:09:00,79.8,55.3,29.81,South,188,0.0,8.0,43,0.00,,,0.00,VWS V14.00,2013-05-14 01:09:00,
2013-05-13 20:14:00,79.5,55.7,29.81,South,182,4.0,8.0,44,0.00,,,0.00,VWS V14.00,2013-05-14 01:14:00,
2013-05-13 20:19:00,79.2,55.4,29.81,South,173,0.0,8.0,44,0.00,,,0.00,VWS V14.00,2013-05-14 01:19:00,
2013-05-13 20:24:00,78.7,55.6,29.81,South,180,2.0,8.0,45,0.00,,,0.00,VWS V14.00,2013-05-14 01:24:00,
2013-05-13 20:29:00,78.5,55.4,29.81,South,175,0.0,11.0,45,0.00,,,0.00,VWS V14.00,2013-05-14 01:29:00,
2013-05-13 20:34:00,78.1,55.7,29.81,SSW,195,0.0,11.0,46,0.00,,,0.00,VWS V14.00,2013-05-14 01:34:00,
2013-05-13 20:39:00,77.7,55.3,29.81,SSE,168,7.0,12.0,46,0.00,,,0.00,VWS V14.00,2013-05-14 01:39:00,
2013-05-13 20:44:00,77.4,55.0,29.81,South,178,0.0,12.0,46,0.00,,,0.00,VWS V14.00,2013-05-14 01:44:00,
2013-05-13 20:49:00,77.1,55.3,29.81,SSW,201,2.0,12.0,47,0.00,,,0.00,VWS V14.00,2013-05-14 01:49:00,
2013-05-13 20:54:00,76.7,55.0,29.81,SSE,163,0.0,12.0,47,0.00,,,0.00,VWS V14.00,2013-05-14 01:54:00,
2013-05-13 20:59:00,76.4,55.3,29.81,South,181,0.0,12.0,48,0.00,,,0.00,VWS V14.00,2013-05-14 01:59:00,
2013-05-13 21:04:00,76.2,55.7,29.81,SSE,167,0.0,12.0,49,0.00,,,0.00,VWS V14.00,2013-05-14 02:04:00,
2013-05-13 21:09:00,75.9,55.4,29.81,SSE,162,0.0,7.0,49,0.00,,,0.00,VWS V14.00,2013-05-14 02:09:00,
2013-05-13 21:14:00,75.6,55.7,29.81,SSW,196,0.0,7.0,50,0.00,,,0.00,VWS V14.00,2013-05-14 02:14:00,
2013-05-13 21:19:00,75.4,55.5,29.81,South,169,0.0,9.0,50,0.00,,,0.00,VWS V14.00,2013-05-14 02:19:00,
2013-05-13 21:24:00,75.1,55.8,29.81,South,188,0.0,9.0,51,0.00,,,0.00,VWS V14.00,2013-05-14 02:24:00,
2013-05-13 21:29:00,74.9,55.6,29.81,South,169,5.0,9.0,51,0.00,,,0.00,VWS V14.00,2013-05-14 02:29:00,
2013-05-13 21:34:00,74.6,55.8,29.81,SW,231,0.0,11.0,52,0.00,,,0.00,VWS V14.00,2013-05-14 02:34:00,
2013-05-13 21:39:00,74.4,55.7,29.81,SSE,159,0.0,5.0,52,0.00,,,0.00,VWS V14.00,2013-05-14 02:39:00,
2013-05-13 21:44:00,74.1,55.4,29.81,SSE,165,7.0,10.0,52,0.00,,,0.00,VWS V14.00,2013-05-14 02:44:00,
2013-05-13 21:49:00,74.0,55.8,29.81,SSW,203,0.0,10.0,53,0.00,,,0.00,VWS V14.00,2013-05-14 02:49:00,
2013-05-13 21:54:00,73.8,55.6,29.81,South,175,0.0,10.0,53,0.00,,,0.00,VWS V14.00,2013-05-14 02:54:00,
2013-05-13 21:59:00,73.6,55.4,29.82,SSW,209,0.0,10.0,53,0.00,,,0.00,VWS V14.00,2013-05-14 02:59:00,
2013-05-13 22:04:00,73.5,55.9,29.82,SSE,163,0.0,10.0,54,0.00,,,0.00,VWS V14.00,2013-05-14 03:04:00,
2013-05-13 22:09:00,73.3,55.7,29.82,SSW,195,0.0,0.0,54,0.00,,,0.00,VWS V14.00,2013-05-14 03:09:00,
2013-05-13 22:14:00,73.1,55.5,29.82,South,169,0.0,8.0,54,0.00,,,0.00,VWS V14.00,2013-05-14 03:14:00,
2013-05-13 22:19:00,72.9,55.3,29.82,South,173,0.0,8.0,54,0.00,,,0.00,VWS V14.00,2013-05-14 03:19:00,
2013-05-13 22:24:00,72.7,55.1,29.82,SSE,162,0.0,8.0,54,0.00,,,0.00,VWS V14.00,2013-05-14 03:24:00,
2013-05-13 22:29:00,72.5,55.4,29.82,South,186,0.0,8.0,55,0.00,,,0.00,VWS V14.00,2013-05-14 03:29:00,
2013-05-13 22:34:00,72.3,55.2,29.82,SSW,198,0.0,8.0,55,0.00,,,0.00,VWS V14.00,2013-05-14 03:34:00,
2013-05-13 22:39:00,72.1,55.6,29.82,South,178,0.0,3.0,56,0.00,,,0.00,VWS V14.00,2013-05-14 03:39:00,
2013-05-13 22:44:00,71.9,55.4,29.82,South,178,0.0,6.0,56,0.00,,,0.00,VWS V14.00,2013-05-14 03:44:00,
2013-05-13 22:49:00,71.7,55.2,29.82,South,190,0.0,6.0,56,0.00,,,0.00,VWS V14.00,2013-05-14 03:49:00,
2013-05-13 22:54:00,71.4,54.9,29.81,SSE,167,0.0,6.0,56,0.00,,,0.00,VWS V14.00,2013-05-14 03:54:00,
2013-05-13 22:59:00,71.3,55.3,29.81,South,180,0.0,6.0,57,0.00,,,0.00,VWS V14.00,2013-05-14 03:59:00,
2013-05-13 23:01:00,71.2,55.2,29.81,South,171,0.0,6.0,57,0.00,,,0.00,VWS V14.00,2013-05-14 04:01:00,
2013-05-13 23:06:00,71.0,55.0,29.81,South,183,0.0,1.0,57,0.00,,,0.00,VWS V14.00,2013-05-14 04:06:00,
2013-05-13 23:11:00,70.8,55.3,29.81,South,175,0.0,1.0,58,0.00,,,0.00,VWS V14.00,2013-05-14 04:11:00,
2013-05-13 23:16:00,70.5,55.0,29.81,SSE,150,0.0,5.0,58,0.00,,,0.00,VWS V14.00,2013-05-14 04:16:00,
2013-05-13 23:21:00,70.4,55.4,29.81,South,180,0.0,5.0,59,0.00,,,0.00,VWS V14.00,2013-05-14 04:21:00,
2013-05-13 23:26:00,70.2,55.2,29.81,South,190,0.0,5.0,59,0.00,,,0.00,VWS V14.00,2013-05-14 04:26:00,
2013-05-13 23:31:00,70.0,55.0,29.81,SSW,192,0.0,5.0,59,0.00,,,0.00,VWS V14.00,2013-05-14 04:31:00,
2013-05-13 23:36:00,69.9,55.4,29.81,South,171,0.0,0.0,60,0.00,,,0.00,VWS V14.00,2013-05-14 04:36:00,
2013-05-13 23:41:00,69.7,55.2,29.81,SSW,202,0.0,5.0,60,0.00,,,0.00,VWS V14.00,2013-05-14 04:41:00,
2013-05-13 23:46:00,69.5,55.0,29.81,South,190,0.0,5.0,60,0.00,,,0.00,VWS V14.00,2013-05-14 04:46:00,
2013-05-13 23:51:00,69.4,55.4,29.81,SW,229,0.0,5.0,61,0.00,,,0.00,VWS V14.00,2013-05-14 04:51:00,
2013-05-13 23:56:00,69.2,55.2,29.81,SSW,205,0.0,5.0,61,0.00,,,0.00,VWS V14.00,2013-05-14 04:56:00,